Location: Les Jeannots
(43.2262°N, 5.5774°E)
Time: 19:01:35
(UTC+00:00)

Cosmos 2278 Rocket - Pass Details

Date: 05 July 2020
Orbit: 841 x 845 km, 71.0° (Epoch: 11 August)

Event Time Altitude Azimuth Distance (km) Brightness Sun altitude
Rises 21:01:30 0° 342° (NNW) 3,414 6.8 -14.4°
Reaches altitude 10° 21:04:16 10° 353° (N) 2,475 5.6 -14.7°
Maximum altitude 21:09:14 30° 54° (NE) 1,470 3.4 -15.3°
Enters shadow 21:12:50 16° 106° (ESE) 2,058 3.8 -15.7°
